Date String (YYYY-MM-DD hh:mm:ss) UTC,Instrument flags,Ambient pressure (hPa),Sample flow (lpm),Bypass flow (lpm),Sample temperature (°C),Ambient temperature (°C),ASC tube jacket temperature (°C),LED temperature (°C),Box temperature (°C),Sample RH (%),Span deviation,Mass concentration (μg/m³),Mass concentration (μg/m³),Mass concentration (μg/m³)
DateTimeUTC,F1_M11,P_M11,Q1_M11,Q2_M11,T1_M11,T2_M11,T3_M11,T4_M11,T5_M11,U1_M11,ZSPAN_M11,X0_M11,X2_M11,X1_M11
2022-03-26 10:00:00,,0824.9,5.00,0.00,26.7,25.7,00.0,35.8,28.5,14.3,0000.0,0015.30,0005.38,0003.85
2022-03-26 10:01:00,,0824.9,5.00,0.00,26.7,25.7,00.0,35.8,28.5,14.3,0000.0,0015.20,0005.32,0003.84
2022-03-26 10:02:00,,0824.8,5.00,0.00,26.7,25.7,00.0,35.8,28.4,14.3,0000.0,0015.46,0005.30,0003.85
2022-03-26 10:03:00,,0824.8,5.01,0.00,26.6,25.6,00.0,35.8,28.4,14.3,0000.0,0015.41,0005.31,0003.86
2022-03-26 10:04:00,,0824.8,5.00,0.00,26.6,25.6,00.0,35.7,28.4,14.3,0000.0,0015.07,0005.34,0003.87
2022-03-26 10:05:00,,0824.8,4.99,0.00,26.6,25.6,00.0,35.7,28.4,14.3,0000.0,0014.59,0005.34,0003.88
2022-03-26 10:06:00,,0824.9,4.99,0.00,26.6,25.6,00.0,35.7,28.4,14.3,0000.0,0015.65,0005.38,0003.88
2022-03-26 10:07:00,,0824.8,5.01,0.00,26.6,25.7,00.0,35.7,28.4,14.3,0000.0,0016.98,0005.37,0003.88
2022-03-26 10:08:00,,0824.8,5.01,0.00,26.6,25.7,00.0,35.7,28.4,14.3,0000.0,0017.40,0005.35,0003.87
2022-03-26 10:09:00,,0824.8,5.00,0.00,26.6,25.7,00.0,35.7,28.4,14.3,0000.0,0016.97,0005.33,0003.86
2022-03-26 10:10:00,,0824.9,5.00,0.00,26.7,25.7,00.0,35.7,28.4,14.3,0000.0,0016.36,0005.30,0003.86
2022-03-26 10:11:00,,0824.9,5.00,0.00,26.7,25.7,00.0,35.7,28.5,14.3,0000.0,0016.18,0005.27,0003.85
2022-03-26 10:12:00,,0824.8,5.02,0.00,26.7,25.7,00.0,35.7,28.5,14.3,0000.0,0017.14,0005.24,0003.84
2022-03-26 10:13:00,,0824.9,5.01,0.00,26.7,25.7,00.0,35.7,28.5,14.3,0000.0,0016.73,0005.18,0003.82
2022-03-26 10:14:00,,0824.9,4.99,0.00,26.7,25.7,00.0,35.7,28.4,14.3,0000.0,0016.27,0005.17,0003.82
2022-03-26 10:15:00,,0824.7,4.99,0.00,26.6,25.7,00.0,35.7,28.4,14.3,0000.0,0016.49,0005.13,0003.81
2022-03-26 10:16:00,,0824.9,5.00,0.00,26.6,25.7,00.0,35.7,28.4,14.3,0000.0,0016.80,0005.11,0003.80
2022-03-26 10:17:00,,0824.9,5.01,0.00,26.6,25.7,00.0,35.7,28.4,14.3,0000.0,0016.88,0005.11,0003.81
2022-03-26 10:18:00,,0824.8,5.00,0.00,26.6,25.7,00.0,35.6,28.4,14.3,0000.0,0015.68,0005.11,0003.82
2022-03-26 10:19:00,,0824.6,5.00,0.00,26.6,25.7,00.0,35.7,28.4,14.3,0000.0,0015.02,0005.15,0003.84
2022-03-26 10:20:00,,0824.7,5.01,0.00,26.7,25.7,00.0,35.6,28.4,14.3,0000.0,0015.58,0005.22,0003.86
2022-03-26 10:21:00,,0824.7,5.00,0.00,26.6,25.7,00.0,35.6,28.4,14.3,0000.0,0016.31,0005.27,0003.88
2022-03-26 10:22:00,,0824.8,5.00,0.00,26.6,25.6,00.0,35.6,28.4,14.3,0000.0,0016.55,0005.31,0003.90
2022-03-26 10:23:00,,0824.6,4.99,0.00,26.6,25.6,00.0,35.6,28.4,14.3,0000.0,0015.65,0005.39,0003.92
2022-03-26 10:24:00,,0824.8,5.00,0.00,26.6,25.6,00.0,35.6,28.4,14.3,0000.0,0016.37,0005.51,0003.94
2022-03-26 10:25:00,,0824.8,4.99,0.00,26.6,25.6,00.0,35.6,28.4,14.3,0000.0,0017.08,0005.61,0003.95
2022-03-26 10:26:00,,0824.9,5.00,0.00,26.6,25.6,00.0,35.6,28.4,14.3,0000.0,0017.72,0005.73,0003.98
2022-03-26 10:27:00,,0824.8,5.00,0.00,26.6,25.6,00.0,35.6,28.4,14.3,0000.0,0017.46,0005.75,0003.98
2022-03-26 10:28:00,,0824.6,4.99,0.00,26.6,25.6,00.0,35.6,28.4,14.3,0000.0,0016.33,0005.75,0003.99
2022-03-26 10:29:00,,0824.4,5.02,0.00,26.6,25.6,00.0,35.6,28.4,14.3,0000.0,0015.96,0005.74,0004.00
2022-03-26 10:30:00,,0824.5,5.00,0.00,26.6,25.6,00.0,35.6,28.4,14.3,0000.0,0016.31,0005.78,0004.01
2022-03-26 10:31:00,,0824.6,5.00,0.00,26.6,25.5,00.0,35.6,28.3,14.4,0000.0,0016.19,0005.82,0004.03
2022-03-26 10:32:00,,0824.7,5.00,0.00,26.5,25.5,00.0,35.6,28.3,14.4,0000.0,0015.83,0005.78,0004.03
2022-03-26 10:33:00,,0824.7,5.00,0.00,26.5,25.5,00.0,35.6,28.3,14.4,0000.0,0016.46,0005.77,0004.04
2022-03-26 10:34:00,,0824.6,5.00,0.00,26.5,25.5,00.0,35.6,28.3,14.4,0000.0,0016.70,0005.75,0004.04
2022-03-26 10:35:00,,0824.8,5.00,0.00,26.5,25.5,00.0,35.6,28.3,14.3,0000.0,0015.73,0005.72,0004.05
2022-03-26 10:36:00,,0824.9,5.00,0.00,26.5,25.5,00.0,35.6,28.3,14.2,0000.0,0016.34,0005.70,0004.04
2022-03-26 10:37:00,,0824.6,5.00,0.00,26.5,25.5,00.0,35.6,28.3,14.3,0000.0,0015.79,0005.59,0004.03
2022-03-26 10:38:00,,0824.5,5.00,0.00,26.5,25.5,00.0,35.5,28.3,14.3,0000.0,0016.11,0005.58,0004.06
2022-03-26 10:39:00,,0824.5,5.00,0.00,26.5,25.5,00.0,35.6,28.3,14.4,0000.0,0016.35,0005.65,0004.09
2022-03-26 10:40:00,,0824.4,4.99,0.00,26.5,25.4,00.0,35.5,28.3,14.4,0000.0,0016.62,0005.70,0004.11
2022-03-26 10:41:00,,0824.5,5.01,0.00,26.5,25.4,00.0,35.5,28.3,14.5,0000.0,0017.20,0005.70,0004.13
2022-03-26 10:42:00,,0824.6,5.01,0.00,26.5,25.4,00.0,35.5,28.3,14.5,0000.6,0017.25,0005.64,0004.14
2022-03-26 10:43:00,,0824.6,5.00,0.00,26.5,25.5,00.0,35.5,28.2,14.3,0001.8,0017.22,0005.75,0004.17
2022-03-26 10:44:00,,0824.6,5.00,0.00,26.5,25.4,00.0,35.5,28.2,14.3,0003.6,0016.36,0005.76,0004.19
2022-03-26 10:45:00,,0824.6,5.01,0.00,26.4,25.4,00.0,35.5,28.2,14.4,0001.1,0016.29,0005.81,0004.20
2022-03-26 10:46:00,,0824.6,5.00,0.00,26.4,25.4,00.0,35.5,28.2,14.5,0000.2,0017.30,0005.78,0004.22
2022-03-26 10:47:00,,0824.5,5.00,0.00,26.4,25.4,00.0,35.5,28.2,14.5,0000.0,0015.97,0005.71,0004.25
2022-03-26 10:48:00,,0824.5,5.00,0.00,26.4,25.4,00.0,35.5,28.2,14.6,0000.0,0015.57,0005.71,0004.26
2022-03-26 10:49:00,,0824.5,4.99,0.00,26.4,25.4,00.0,35.5,28.2,14.6,0000.0,0015.38,0005.72,0004.23
2022-03-26 10:50:00,,0824.6,4.99,0.00,26.4,25.4,00.0,35.5,28.2,14.6,0000.0,0014.51,0005.60,0004.19
2022-03-26 10:51:00,,0824.5,5.00,0.00,26.4,25.4,00.0,35.4,28.2,14.5,0000.0,0014.50,0005.56,0004.17
2022-03-26 10:52:00,,0824.5,5.00,0.00,26.4,25.4,00.0,35.4,28.2,14.6,0000.0,0013.69,0005.53,0004.16
2022-03-26 10:53:00,,0824.5,5.00,0.00,26.4,25.4,00.0,35.4,28.2,14.6,0000.0,0013.89,0005.58,0004.16
2022-03-26 10:54:00,,0824.6,5.00,0.00,26.4,25.4,00.0,35.4,28.1,14.6,0000.0,0013.87,0005.57,0004.14
2022-03-26 10:55:00,,0824.4,5.00,0.00,26.3,25.4,00.0,35.4,28.1,14.6,0000.0,0014.84,0005.60,0004.13
2022-03-26 10:56:00,,0824.5,5.00,0.00,26.3,25.3,00.0,35.4,28.1,14.6,0000.0,0015.17,0005.59,0004.12
2022-03-26 10:57:00,,0824.4,5.00,0.00,26.3,25.4,00.0,35.4,28.1,14.6,0000.0,0014.35,0005.59,0004.11
2022-03-26 10:58:00,,0824.4,5.00,0.00,26.3,25.4,00.0,35.4,28.2,14.6,0000.0,0015.28,0005.60,0004.09
2022-03-26 10:59:00,,0824.5,4.99,0.00,26.4,25.4,00.0,35.4,28.1,14.6,0000.0,0016.29,0005.73,0004.11
